Swanton, VT

9:24 AM EDT on September 26, 2016 (GMT -0400)
Franklin County State

Weather History for KFSO - April, 2013

Change the Weather History Date:

Thursday, April 25, 2013

  Actual Average (KPBG) Record (KPBG)
Temperature  
Mean Temperature 48 °F 48 °F  
Max Temperature 56 °F 59 °F 82 °F (1982)
Min Temperature 36 °F 37 °F 24 °F (1949)
Degree Days  
Heating Degree Days 16 17  
Month to date heating degree days 581  
Since 1 July heating degree days 7264  
Cooling Degree Days 0 0  
Month to date cooling degree days 0  
Year to date cooling degree days 0  
Moisture  
Dew Point 29 °F    
Average Humidity 52    
Maximum Humidity 85    
Minimum Humidity 24    
Precipitation  
Precipitation 0.00 in - 1.97 in (1968)
Month to date precipitation  
Year to date precipitation  
Sea Level Pressure  
Sea Level Pressure 30.09 in    
Wind  
Wind Speed 8 mph (West)    
Max Wind Speed 15 mph    
Max Gust Speed 26 mph    
Visibility 10 miles    
Events Rain    
T = Trace of Precipitation, MM = Missing Value Source: NWS Daily Summary

Daily Weather History Graph

Daily Weather History Graph

Search for Another Location

Airport or City:

Trip Planner

Search our weather history database for the weather conditions in past years. The results will help you decide how hot, cold, wet, or windy it might be!

Date:

Astronomy

Apr. 25, 2013 Rise Set
Actual Time 5:50 AM EDT 7:50 PM EDT
Civil Twilight 5:19 AM EDT 8:22 PM EDT
Nautical Twilight 4:40 AM EDT 9:01 PM EDT
Astronomical Twilight 3:57 AM EDT 9:44 PM EDT
Moon 8:01 PM EDT (4/25) 5:32 AM EDT (4/25)
Length of Visible Light 15h 03m
Length of Day
13h 59m
Full, 100% of the Moon is Illuminated
Apr 25
Full
Apr 25
Full
May 2
Last Quarter
May 9
New
May 18
First Quarter

Hourly Weather History & Observations

Time (EDT) Temp. Windchill Dew Point Humidity Pressure Visibility Wind Dir Wind Speed Gust Speed Precip Events Conditions
12:15 AM 61.3 °F - 48.6 °F 63% 29.63 in 7.0 mi WSW 12.7 mph 23.0 mph N/A Rain Heavy Rain
12:35 AM 56.8 °F - 51.1 °F 81% 29.63 in 7.0 mi SSW 9.2 mph 19.6 mph N/A Rain Light Rain
12:55 AM 56.3 °F - 51.8 °F 85% 29.65 in 10.0 mi SW 6.9 mph - N/A   Light Drizzle
1:15 AM 55.4 °F - 48.2 °F 77% 29.67 in 10.0 mi SW 11.5 mph 26.5 mph N/A   Overcast
1:35 AM 54.5 °F - 43.7 °F 67% 29.70 in 10.0 mi WSW 10.4 mph 20.7 mph N/A   Overcast
2:15 AM 50.5 °F - 38.8 °F 64% 29.76 in 10.0 mi SW 10.4 mph 20.7 mph N/A   Overcast
2:35 AM 49.3 °F - 35.2 °F 58% 29.78 in 10.0 mi West 9.2 mph 23.0 mph N/A   Overcast
2:55 AM 49.3 °F - 36.5 °F 61% 29.81 in 10.0 mi WSW 11.5 mph 21.9 mph N/A   Overcast
3:15 AM 49.3 °F - 37.2 °F 63% 29.84 in 10.0 mi WSW 8.1 mph 19.6 mph N/A   Overcast
3:35 AM 49.3 °F - 35.6 °F 59% 29.86 in 10.0 mi WSW 13.8 mph 21.9 mph N/A   Overcast
3:55 AM 46.8 °F - 32.4 °F 57% 29.87 in 10.0 mi WSW 15.0 mph 25.3 mph N/A   Overcast
4:15 AM 43.3 °F 38.6 °F 33.4 °F 68% 29.90 in 10.0 mi WSW 8.1 mph 17.3 mph N/A   Overcast
4:35 AM 42.6 °F 39.9 °F 33.6 °F 70% 29.91 in 10.0 mi SW 4.6 mph - N/A   Overcast
4:55 AM 42.4 °F 39.6 °F 32.0 °F 67% 29.93 in 10.0 mi WSW 4.6 mph - N/A   Overcast
5:15 AM 42.4 °F 37.5 °F 32.0 °F 67% 29.94 in 10.0 mi WSW 8.1 mph - N/A   Overcast
5:35 AM 41.9 °F 35.9 °F 32.4 °F 69% 29.95 in 10.0 mi West 10.4 mph 16.1 mph N/A   Overcast
5:55 AM 41.9 °F 35.4 °F 32.0 °F 68% 29.97 in 10.0 mi West 11.5 mph 23.0 mph N/A   Overcast
6:15 AM 40.5 °F 34.1 °F 31.8 °F 71% 29.99 in 10.0 mi West 10.4 mph 20.7 mph N/A   Mostly Cloudy
6:35 AM 39.2 °F 32.0 °F 31.6 °F 74% 30.00 in 10.0 mi West 11.5 mph 20.7 mph N/A   Mostly Cloudy
6:55 AM 39.2 °F 31.2 °F 31.6 °F 74% 30.00 in 10.0 mi West 13.8 mph 20.7 mph N/A   Scattered Clouds
7:15 AM 39.6 °F 36.3 °F 31.1 °F 72% 30.03 in 10.0 mi West 4.6 mph 19.6 mph N/A   Clear
7:35 AM 40.5 °F 36.5 °F 31.6 °F 71% 30.05 in 10.0 mi West 5.8 mph - N/A   Scattered Clouds
7:55 AM 41.0 °F 35.8 °F 31.5 °F 69% 30.07 in 10.0 mi West 8.1 mph - N/A   Mostly Cloudy
8:15 AM 40.5 °F 35.1 °F 31.5 °F 70% 30.09 in 10.0 mi West 8.1 mph - N/A   Overcast
8:35 AM 41.0 °F 37.1 °F 31.8 °F 70% 30.10 in 10.0 mi West 5.8 mph - N/A   Mostly Cloudy
8:55 AM 41.9 °F 38.2 °F 31.3 °F 66% 30.11 in 10.0 mi West 5.8 mph - N/A   Mostly Cloudy
9:15 AM 40.5 °F 36.5 °F 30.6 °F 68% 30.11 in 10.0 mi WNW 5.8 mph - N/A   Overcast
9:35 AM 41.9 °F 35.4 °F 30.2 °F 63% 30.11 in 10.0 mi West 11.5 mph 17.3 mph N/A   Overcast
9:55 AM 43.7 °F 39.1 °F 28.4 °F 55% 30.12 in 10.0 mi WSW 8.1 mph 16.1 mph N/A   Overcast
10:15 AM 46.0 °F 41.4 °F 29.7 °F 53% 30.13 in 10.0 mi WSW 9.2 mph - N/A   Mostly Cloudy
10:35 AM 48.9 °F - 31.1 °F 50% 30.13 in 10.0 mi West 9.2 mph - N/A   Overcast
10:55 AM 49.3 °F - 31.3 °F 50% 30.15 in 10.0 mi West 10.4 mph 23.0 mph N/A   Mostly Cloudy
11:15 AM 49.3 °F - 29.7 °F 47% 30.15 in 10.0 mi WSW 6.9 mph 21.9 mph N/A   Scattered Clouds
11:35 AM 49.3 °F - 29.1 °F 46% 30.15 in 10.0 mi West 9.2 mph 18.4 mph N/A   Mostly Cloudy
11:55 AM 49.6 °F - 27.0 °F 41% 30.16 in 10.0 mi WNW 10.4 mph 17.3 mph N/A   Scattered Clouds
12:15 PM 50.7 °F - 23.9 °F 35% 30.16 in 10.0 mi West 8.1 mph 16.1 mph N/A   Scattered Clouds
12:35 PM 51.8 °F - 24.6 °F 35% 30.17 in 10.0 mi West 10.4 mph 17.3 mph N/A   Scattered Clouds
12:55 PM 51.8 °F - 22.6 °F 32% 30.17 in 10.0 mi West 8.1 mph - N/A   Scattered Clouds
1:15 PM 53.8 °F - 22.6 °F 30% 30.17 in 10.0 mi West 5.8 mph - N/A   Clear
1:35 PM 54.5 °F - 22.1 °F 28% 30.18 in 10.0 mi West 9.2 mph - N/A   Scattered Clouds
1:55 PM 54.5 °F - 21.9 °F 28% 30.17 in 10.0 mi West 5.8 mph - N/A   Clear
2:15 PM 54.7 °F - 21.9 °F 28% 30.17 in 10.0 mi NW 8.1 mph 17.3 mph N/A   Scattered Clouds
2:35 PM 54.5 °F - 19.9 °F 26% 30.17 in 10.0 mi WSW 6.9 mph - N/A   Scattered Clouds
2:55 PM 54.7 °F - 20.8 °F 27% 30.17 in 10.0 mi WSW 4.6 mph - N/A   Clear
3:15 PM 54.5 °F - 19.6 °F 26% 30.17 in 10.0 mi WNW 5.8 mph - N/A   Clear
3:35 PM 54.5 °F - 19.6 °F 26% 30.17 in 10.0 mi West 8.1 mph - N/A   Scattered Clouds
3:55 PM 56.1 °F - 21.0 °F 26% 30.17 in 10.0 mi NW 6.9 mph - N/A   Clear
4:15 PM 54.9 °F - 19.8 °F 25% 30.18 in 10.0 mi WNW 6.9 mph - N/A   Clear
4:35 PM 55.4 °F - 19.9 °F 25% 30.18 in 10.0 mi NNW 6.9 mph - N/A   Clear
4:55 PM 54.5 °F - 18.9 °F 25% 30.17 in 10.0 mi NNE 4.6 mph - N/A   Clear
5:15 PM 54.5 °F - 20.1 °F 26% 30.18 in 10.0 mi North 9.2 mph - N/A   Clear
5:35 PM 54.5 °F - 18.3 °F 24% 30.18 in 10.0 mi NNW 4.6 mph - N/A   Clear
5:55 PM 54.5 °F - 18.7 °F 25% 30.19 in 10.0 mi NW 3.5 mph - N/A   Clear
6:15 PM 54.5 °F - 21.4 °F 28% 30.20 in 10.0 mi North 4.6 mph - N/A   Clear
6:35 PM 54.5 °F - 23.2 °F 30% 30.21 in 10.0 mi North 5.8 mph - N/A   Clear
6:55 PM 54.5 °F - 24.4 °F 31% 30.21 in 10.0 mi NE 4.6 mph - N/A   Clear
7:15 PM 51.3 °F - 24.1 °F 35% 30.21 in 10.0 mi North 6.9 mph - N/A   Clear
7:35 PM 49.3 °F - 23.5 °F 36% 30.22 in 10.0 mi NNE 4.6 mph - N/A   Clear
7:55 PM 49.3 °F - 25.9 °F 40% 30.23 in 10.0 mi North 4.6 mph - N/A   Clear
8:15 PM 48.9 °F - 26.8 °F 42% 30.24 in 10.0 mi North 3.5 mph - N/A   Clear
8:35 PM 46.8 °F - 25.5 °F 43% 30.25 in 10.0 mi NNE 3.5 mph - N/A   Clear
8:55 PM 42.8 °F 41.1 °F 25.2 °F 50% 30.26 in 10.0 mi NNE 3.5 mph - N/A   Clear
9:15 PM 43.5 °F - 25.2 °F 48% 30.28 in 10.0 mi Calm Calm - N/A   Clear
9:35 PM 41.2 °F - 28.0 °F 60% 30.28 in 10.0 mi Calm Calm - N/A   Clear
9:55 PM 39.0 °F - 29.8 °F 70% 30.29 in 10.0 mi Calm Calm - N/A   Clear
10:15 PM 38.8 °F - 29.3 °F 69% 30.29 in 10.0 mi Calm Calm - N/A   Clear
10:35 PM 36.7 °F - 29.1 °F 74% 30.29 in 10.0 mi Calm Calm - N/A   Clear
10:55 PM 36.7 °F 34.1 °F 28.2 °F 71% 30.30 in 10.0 mi SE 3.5 mph - N/A   Clear
11:15 PM 36.9 °F - 27.3 °F 68% 30.30 in 10.0 mi Calm Calm - N/A   Clear
11:35 PM 36.7 °F 32.0 °F 27.5 °F 69% 30.30 in 10.0 mi ESE 5.8 mph - N/A   Clear
11:55 PM 39.0 °F 34.0 °F 28.9 °F 67% 30.30 in 10.0 mi ESE 6.9 mph - N/A   Clear